Date,TemperatureHighF,TemperatureAvgF,TemperatureLowF,DewpointHighF,DewpointAvgF,DewpointLowF,HumidityHigh,HumidityAvg,HumidityLow,PressureMaxIn,PressureMinIn,WindSpeedMaxMPH,WindSpeedAvgMPH,GustSpeedMaxMPH,PrecipitationSumIn
2013-1-1,39.0,37.5,36.0,37.0,35.4,34.0,94,92,88,29.13,29.03,33,27,48,0.00
2013-1-2,39.0,37.6,35.0,37.0,34.9,33.0,94,90,86,29.29,29.14,34,21,49,0.00
2013-1-3,38.0,37.5,36.0,34.0,33.3,32.0,89,85,81,29.46,29.29,14,10,18,0.00
2013-1-4,39.0,38.3,37.0,35.0,34.2,34.0,88,85,81,29.67,29.55,18,12,26,0.00
2013-1-5,39.0,36.3,34.0,36.0,33.8,33.0,96,91,78,29.46,29.04,23,11,32,0.00
2013-1-6,37.0,35.1,32.0,32.0,30.5,29.0,90,84,78,29.22,29.13,17,6,22,0.00
2013-1-7,37.0,36.2,36.0,35.0,34.1,34.0,92,92,90,28.75,28.70,21,9,26,0.00
2013-1-8,35.0,34.6,34.0,28.0,26.9,26.0,74,73,71,29.50,29.45,16,10,26,0.00
2013-1-9,31.0,29.0,27.0,21.0,19.7,19.0,74,68,60,30.06,30.04,7,5,9,0.00
2013-1-10,34.0,32.0,31.0,32.0,30.4,29.0,95,94,93,29.94,29.91,10,5,11,0.00
2013-1-11,40.0,38.0,37.0,37.0,36.0,35.0,95,93,90,29.65,29.60,17,13,21,0.00
2013-1-12,39.0,37.7,36.0,38.0,36.6,34.0,97,96,94,29.95,29.79,7,3,10,0.00
2013-1-13,41.0,41.0,41.0,41.0,40.2,40.0,100,98,98,29.83,29.68,16,11,23,0.00
2013-1-14,42.0,40.9,40.0,40.0,38.3,35.0,98,90,79,29.88,29.57,26,14,36,0.00
2013-1-15,37.0,34.4,31.0,34.0,31.9,29.0,92,90,88,30.20,30.06,10,4,13,0.00
2013-1-16,38.0,36.6,34.0,37.0,34.8,32.0,95,93,91,30.06,29.74,10,5,13,0.00
2013-1-17,29.0,27.1,24.0,23.0,20.4,19.0,81,76,69,29.65,29.64,13,8,22,0.00
2013-1-18,31.0,27.9,25.0,25.0,20.4,16.0,77,73,65,30.01,29.94,9,4,13,0.00
2013-1-19,41.0,39.2,38.0,38.0,35.7,33.0,88,87,83,29.86,29.69,21,11,45,0.00
2013-1-20,40.0,38.1,36.0,37.0,35.1,33.0,90,89,88,29.73,29.66,15,7,20,0.00
2013-1-21,41.0,38.2,37.0,38.0,34.7,33.0,90,87,84,29.72,29.44,34,22,48,0.00
2013-1-22,42.0,41.2,40.0,38.0,37.3,37.0,89,86,85,29.29,29.25,27,13,41,0.00
2013-1-23,42.0,41.8,41.0,39.0,39.0,39.0,91,90,89,29.11,29.09,28,20,36,0.00
2013-1-24,39.0,38.8,38.0,37.0,36.7,36.0,92,91,90,29.39,29.35,10,6,19,0.00
2013-1-25,38.0,36.0,31.0,31.0,29.2,27.0,95,78,64,29.49,29.44,13,6,27,0.00
2013-1-26,29.0,26.4,22.0,13.0,8.2,4.0,65,46,34,29.78,29.62,13,7,15,0.00
2013-1-27,25.0,24.4,24.0,12.0,10.8,9.0,60,56,51,29.94,29.88,21,16,24,0.00
2013-1-28,28.0,22.0,14.0,27.0,18.9,6.0,94,87,67,29.95,29.67,30,20,41,0.00
2013-1-29,38.0,36.3,35.0,36.0,35.1,34.0,98,96,94,29.58,29.36,20,6,28,0.00
2013-1-30,40.0,39.4,39.0,39.0,38.4,38.0,98,98,97,29.55,29.47,25,20,30,0.00
2013-1-31,37.0,34.6,32.0,36.0,33.6,31.0,97,96,93,29.76,29.71,15,8,20,0.00
2013-2-1,42.0,39.8,37.0,40.0,37.8,34.0,96,92,90,29.62,29.48,24,12,40,0.00
2013-2-2,39.0,38.6,38.0,38.0,37.6,37.0,98,98,98,29.46,29.45,9,6,11,0.00
2013-2-3,40.0,38.8,38.0,37.0,36.5,36.0,93,92,86,29.32,29.08,31,22,39,0.00
2013-2-4,40.0,38.8,37.0,38.0,36.3,35.0,95,91,87,29.52,29.32,30,16,34,0.00
2013-2-5,39.0,38.1,37.0,36.0,35.3,35.0,92,90,88,29.49,29.48,5,1,10,0.00
2013-2-6,35.0,34.2,33.0,29.0,27.4,25.0,80,76,73,29.52,29.51,10,8,20,0.00
2013-2-7,40.0,36.0,28.0,37.0,33.5,27.0,98,91,77,29.40,29.15,21,7,26,0.00
2013-2-8,39.0,38.0,37.0,37.0,35.2,33.0,92,89,86,29.61,29.47,15,7,21,0.00
2013-2-9,43.0,41.0,39.0,39.0,38.3,37.0,97,90,83,29.10,28.74,36,25,54,0.00
2013-2-10,38.0,36.3,35.0,35.0,32.2,29.0,88,85,75,29.36,29.10,41,15,46,0.00
2013-2-11,30.0,28.1,27.0,21.0,18.4,15.0,74,67,60,29.71,29.67,17,7,25,0.00
2013-2-12,38.0,35.7,33.0,35.0,34.0,32.0,96,93,88,29.53,29.49,10,6,16,0.00
2013-2-13,38.0,37.2,36.0,34.0,32.6,30.0,88,83,77,29.73,29.55,21,12,29,0.00
2013-2-14,39.0,36.7,33.0,36.0,34.3,32.0,96,91,88,29.31,29.01,18,11,25,0.00
2013-2-15,33.0,31.8,31.0,32.0,29.1,25.0,95,90,78,29.75,29.54,11,7,13,0.00
2013-2-16,35.0,35.0,35.0,33.0,33.0,33.0,93,93,93,29.69,29.69,19,19,27,0.00
2013-2-17,35.0,31.9,30.0,34.0,23.0,10.0,97,72,43,29.68,29.46,32,18,38,0.00
2013-2-18,32.0,29.7,25.0,12.0,9.1,5.0,58,42,33,29.81,29.77,8,5,0,0.00
2013-2-19,38.0,34.2,28.0,36.0,31.6,23.0,95,91,81,29.66,28.90,21,8,26,0.00
2013-2-20,36.0,34.4,33.0,33.0,30.8,28.0,96,87,71,29.15,28.86,22,7,28,0.00
2013-2-21,26.0,26.0,26.0,21.0,21.0,21.0,81,81,81,29.20,29.18,5,5,7,0.00
2013-2-22,36.0,33.1,31.0,22.0,20.7,19.0,67,60,55,29.51,29.42,14,8,25,0.00
2013-2-23,37.0,35.9,35.0,34.0,31.9,30.0,92,85,75,29.14,29.02,30,25,46,0.00
2013-2-24,37.0,36.2,36.0,34.0,33.9,33.0,93,92,89,29.18,29.14,31,23,47,0.00
2013-2-25,33.0,32.4,32.0,29.0,29.0,29.0,88,87,85,29.49,29.46,9,4,11,0.00
2013-2-26,39.0,38.5,38.0,35.0,34.6,34.0,88,87,86,29.08,29.06,19,14,45,0.00
2013-2-27,36.0,35.0,34.0,34.0,32.8,32.0,93,91,89,29.02,29.01,10,6,13,0.00
2013-2-28,31.0,29.5,28.0,26.0,23.8,22.0,86,79,74,29.38,29.21,7,5,10,0.00
2013-3-1,37.0,30.5,25.0,26.0,23.9,21.0,88,77,61,29.85,29.50,7,4,8,0.00
2013-3-2,37.0,34.0,25.0,31.0,28.8,22.0,90,81,72,29.87,29.76,22,11,38,0.00
2013-3-3,39.0,37.8,37.0,36.0,34.8,34.0,92,89,87,29.99,29.72,27,11,60,0.00
2013-3-4,41.0,39.9,39.0,40.0,37.6,35.0,95,91,87,30.29,30.19,20,14,31,0.00
2013-3-5,39.0,37.9,36.0,37.0,35.7,33.0,93,91,89,30.16,30.03,25,18,31,0.00
2013-3-6,39.0,38.1,38.0,38.0,37.1,37.0,97,96,95,29.84,29.81,18,12,24,0.00
2013-3-7,40.0,38.2,35.0,36.0,34.7,33.0,94,87,80,29.39,29.23,42,31,54,0.00
2013-3-8,40.0,37.6,36.0,36.0,34.8,34.0,94,89,81,29.48,29.36,44,27,54,0.00
2013-3-9,37.0,35.0,33.0,34.0,30.1,25.0,95,82,70,30.09,29.69,19,9,25,0.00
2013-3-10,37.0,35.0,33.0,32.0,24.5,20.0,84,65,55,30.19,30.06,32,12,40,0.00
2013-3-11,38.0,34.6,31.0,24.0,21.4,16.0,65,58,47,30.23,30.15,31,15,40,0.00
2013-3-12,34.0,32.9,32.0,21.0,20.4,20.0,62,59,55,30.11,30.02,33,21,40,0.00
2013-3-13,31.0,29.9,28.0,23.0,21.6,20.0,73,71,67,29.88,29.85,9,8,12,0.00
2013-3-14,34.0,30.4,26.0,31.0,25.6,20.0,88,82,78,29.62,29.56,12,7,18,0.00
2013-3-15,35.0,30.8,24.0,29.0,26.4,22.0,94,84,67,29.63,29.58,8,4,10,0.00
2013-3-16,34.0,27.8,24.0,28.0,23.8,20.0,88,85,77,29.92,29.80,7,2,8,0.00
2013-3-17,31.0,27.5,25.0,22.0,19.8,18.0,77,72,65,30.18,30.14,12,6,18,0.00
2013-3-18,35.0,32.4,30.0,26.0,18.8,15.0,77,58,47,30.01,29.87,20,12,28,0.00
2013-3-19,26.0,25.8,25.0,9.0,8.6,8.0,50,47,45,29.87,29.86,10,5,14,0.00
2013-3-20,30.0,27.3,25.0,13.0,4.9,0.0,52,38,29,29.91,29.85,25,14,34,0.00
2013-3-21,29.0,27.1,26.0,14.0,12.9,11.0,61,55,47,30.09,30.06,7,5,12,0.00
2013-3-22,38.0,37.4,37.0,32.0,31.4,31.0,79,79,78,30.03,29.99,26,24,32,0.00
2013-3-23,34.0,32.8,32.0,32.0,30.8,30.0,94,94,93,29.81,29.79,4,2,6,0.00
2013-3-24,33.0,33.0,33.0,32.0,32.0,32.0,96,96,95,29.60,29.54,19,14,21,0.00
2013-3-25,26.0,24.5,23.0,12.0,10.4,9.0,58,55,50,29.61,29.59,18,12,24,0.00
2013-3-26,16.0,15.2,14.0,5.0,3.2,1.0,63,58,50,29.95,29.91,9,7,12,0.00
2013-3-27,38.0,32.8,27.0,36.0,29.5,22.0,93,87,80,30.09,29.99,21,8,24,0.00
2013-3-28,38.0,36.9,36.0,36.0,35.5,35.0,95,94,92,29.79,29.75,34,26,44,0.00
2013-3-29,41.0,39.7,39.0,35.0,34.4,33.0,85,81,77,29.75,29.72,14,7,15,0.00
2013-3-30,39.0,38.4,38.0,36.0,27.5,-99.9,90,87,85,30.11,30.10,14,11,15,0.00
2013-3-31,38.0,36.9,35.0,35.0,33.7,33.0,94,88,82,30.14,30.09,12,8,14,0.00
2013-4-1,41.0,37.7,35.0,29.0,27.9,27.0,75,67,60,30.02,29.99,9,4,0,0.00
2013-4-2,37.0,36.6,35.0,30.0,28.8,28.0,79,73,70,30.08,30.06,8,4,0,0.00
2013-4-3,40.0,38.5,37.0,34.0,33.9,33.0,88,83,78,30.07,30.02,16,10,29,0.00
2013-4-4,38.0,37.6,36.0,34.0,31.4,28.0,85,78,70,30.03,29.64,29,12,37,0.00
2013-4-5,40.0,38.3,37.0,30.0,28.4,27.0,72,67,63,29.57,29.47,15,10,24,0.00
2013-4-6,40.0,36.4,35.0,32.0,31.4,31.0,86,82,69,29.47,29.44,19,17,24,0.00
2013-4-7,31.0,28.1,27.0,20.0,12.9,2.0,73,55,32,29.72,29.66,23,14,0,0.00
2013-4-8,28.0,24.7,22.0,13.0,11.8,10.0,69,57,50,29.58,29.46,26,19,33,0.00
2013-4-9,17.0,16.9,16.0,7.0,6.7,5.0,65,63,60,29.27,29.22,24,18,43,0.00
2013-4-10,22.0,20.1,18.0,7.0,4.8,2.0,53,50,48,29.86,29.76,20,11,29,0.00
2013-4-11,21.0,20.2,19.0,13.0,12.0,11.0,77,71,66,29.98,29.97,11,9,15,0.00
2013-4-12,31.0,25.3,19.0,14.0,10.8,8.0,75,55,38,30.09,30.04,16,8,24,0.00
2013-4-13,23.0,21.8,20.0,15.0,13.9,13.0,76,71,67,30.15,30.15,9,7,10,0.00
2013-4-14,28.0,25.1,24.0,17.0,15.3,14.0,73,66,54,30.42,30.41,8,6,10,0.00
2013-4-15,39.0,35.0,30.0,34.0,29.5,25.0,91,81,61,30.39,30.17,9,4,12,0.00
2013-4-16,40.0,37.1,35.0,30.0,25.5,17.0,80,64,41,30.09,30.02,30,20,38,0.00
2013-4-17,28.0,27.3,27.0,22.0,21.3,20.0,81,78,72,30.11,30.08,7,6,0,0.00
2013-4-18,40.0,34.1,29.0,27.0,24.1,21.0,74,66,56,30.09,30.07,11,5,0,0.00
2013-4-19,39.0,33.4,28.0,31.0,27.1,25.0,87,78,64,30.19,30.12,10,5,0,0.00
2013-4-20,37.0,35.1,34.0,32.0,30.8,29.0,91,85,77,30.28,30.23,13,9,0,0.00
2013-4-21,42.0,39.2,36.0,35.0,33.3,31.0,92,80,66,30.19,30.08,31,21,37,0.00
2013-4-22,41.0,39.0,37.0,36.0,34.5,32.0,87,84,82,30.34,30.28,33,19,43,0.00
2013-4-23,43.0,41.4,40.0,40.0,39.2,38.0,94,92,90,30.20,30.17,34,24,41,0.00
2013-4-24,39.0,38.4,38.0,37.0,35.6,35.0,91,90,89,30.28,30.26,19,10,26,0.00
2013-4-25,47.0,45.6,45.0,32.0,30.0,28.0,57,54,51,29.76,29.75,25,17,31,0.00
2013-4-26,39.0,38.4,38.0,14.0,12.6,11.0,35,34,33,29.66,29.64,22,19,33,0.00
2013-4-27,39.0,38.5,38.0,29.0,25.3,22.0,67,59,53,29.54,29.54,18,12,26,0.00
2013-4-28,38.0,36.9,34.0,23.0,21.7,20.0,57,54,50,29.95,29.93,21,10,24,0.00
2013-4-29,33.0,31.7,31.0,28.0,26.6,25.0,84,81,78,30.17,30.16,5,2,6,0.00
2013-4-30,34.0,33.1,32.0,30.0,29.9,29.0,90,88,86,30.04,30.00,4,1,5,0.00
2013-5-1,37.0,36.3,36.0,35.0,34.2,34.0,92,91,90,29.53,29.47,21,17,29,0.00
2013-5-2,41.0,40.7,40.0,39.0,38.7,38.0,93,93,92,29.65,29.63,18,11,21,0.00
2013-5-3,44.0,40.3,35.0,43.0,38.3,32.0,98,93,87,29.86,29.77,32,15,38,0.00
2013-5-4,35.0,34.5,33.0,34.0,33.1,32.0,96,94,91,29.80,29.69,31,26,45,0.00
2013-5-5,40.0,35.3,30.0,31.0,27.8,24.0,85,74,65,30.11,30.06,7,3,9,0.00
2013-5-6,41.0,37.9,31.0,36.0,33.1,28.0,89,83,79,30.20,30.17,23,10,27,0.00
2013-5-7,39.0,38.5,37.0,34.0,32.9,31.0,85,80,76,30.22,30.21,23,8,25,0.00
2013-5-8,39.0,38.4,38.0,37.0,35.5,34.0,93,89,84,30.22,30.20,7,2,9,0.00
2013-5-9,44.0,42.0,40.0,38.0,35.8,34.0,83,79,76,30.19,30.16,14,8,25,0.00
2013-5-10,47.0,42.1,41.0,36.0,30.5,-99.9,82,72,55,30.09,29.96,36,25,43,0.00
2013-5-11,45.0,43.5,42.0,43.0,41.1,40.0,92,91,89,29.78,29.47,34,23,46,0.00
2013-5-12,49.0,46.0,44.0,43.0,41.4,39.0,91,84,71,29.47,29.43,28,17,37,0.00
2013-5-13,51.0,46.6,43.0,41.0,38.6,36.0,87,75,62,29.46,29.40,14,6,19,0.00
2013-5-14,48.0,42.9,35.0,38.0,34.2,27.0,92,72,48,29.60,29.50,19,8,23,0.00
2013-5-15,40.0,37.6,36.0,32.0,30.6,29.0,81,76,69,29.66,29.64,6,2,6,0.00
2013-5-16,45.0,39.6,41.0,42.0,21.7,-99.9,94,89,83,29.39,29.33,25,14,31,0.00
2013-5-17,43.0,40.2,40.0,35.0,25.1,-99.9,81,68,59,29.47,29.38,26,13,30,0.00
2013-5-18,41.0,34.5,30.0,19.0,15.9,11.0,60,47,30,30.03,29.67,22,13,31,0.00
2013-5-19,42.0,38.3,32.0,31.0,27.2,22.0,69,64,59,30.58,30.29,13,7,19,0.00
2013-5-20,41.0,36.9,32.0,34.0,31.6,29.0,87,81,68,30.61,30.60,13,4,14,0.00
2013-5-21,42.0,42.0,42.0,40.0,39.9,39.0,94,93,90,30.50,30.37,26,19,30,0.00
2013-5-22,43.0,42.5,42.0,42.0,41.5,41.0,97,97,96,30.20,30.11,16,10,21,0.00
2013-5-23,46.0,43.4,42.0,44.0,42.8,42.0,99,97,93,30.07,30.05,13,6,15,0.00
2013-5-24,42.0,42.0,42.0,41.0,41.0,41.0,96,96,95,30.07,30.06,4,2,5,0.00
2013-5-25,40.0,39.4,39.0,39.0,38.4,38.0,98,98,98,29.97,29.95,9,4,9,0.00
2013-5-26,42.0,42.0,42.0,40.0,39.4,39.0,91,90,90,29.82,29.79,17,10,35,0.00
2013-5-27,46.0,45.2,45.0,42.0,41.3,40.0,89,86,83,29.74,29.73,18,11,34,0.00
2013-5-28,47.0,44.8,43.0,44.0,41.8,40.0,91,89,87,29.70,29.65,14,9,19,0.00
2013-5-29,48.0,45.6,43.0,45.0,43.2,41.0,94,92,88,29.67,29.63,16,8,20,0.00
2013-5-30,44.0,42.5,41.0,43.0,41.5,40.0,99,98,96,29.96,29.81,12,9,15,0.00
2013-5-31,44.0,44.0,44.0,43.0,43.0,43.0,97,96,95,30.06,30.01,10,4,12,0.00
2013-6-1,46.0,46.0,46.0,45.0,44.1,43.0,97,93,89,30.19,30.17,15,12,20,0.00
2013-6-2,47.0,45.9,45.0,46.0,44.5,44.0,97,94,91,30.17,29.91,20,9,32,0.00
2013-6-3,48.0,46.8,46.0,45.0,44.0,42.0,94,90,85,29.80,29.61,27,12,52,0.00
2013-6-4,44.0,44.0,44.0,43.0,43.0,43.0,97,97,97,29.59,29.58,2,0,5,0.00
2013-6-5,50.0,46.4,43.0,43.0,41.8,40.0,95,85,72,29.86,29.82,13,7,29,0.00
2013-6-6,47.0,46.7,46.0,43.0,41.2,38.0,89,82,71,29.73,29.66,30,21,53,0.00
2013-6-7,55.0,48.6,45.0,43.0,41.5,40.0,87,77,61,29.86,29.70,12,4,15,0.00
2013-6-8,48.0,45.8,43.0,46.0,43.5,41.0,94,92,87,30.08,29.98,12,4,13,0.00
2013-6-9,58.0,54.7,53.0,42.0,41.5,40.0,66,61,52,30.17,30.16,8,6,12,0.00
2013-6-10,59.0,51.6,46.0,47.0,43.8,42.0,88,76,60,30.24,30.22,13,5,15,0.00
2013-6-11,60.0,54.0,49.0,49.0,46.5,44.0,84,76,61,30.14,30.06,10,5,13,0.00
2013-6-12,46.0,45.8,45.0,45.0,44.8,44.0,97,97,96,30.00,29.98,7,2,8,0.00
2013-6-13,50.0,48.0,46.0,48.0,46.4,45.0,97,95,91,30.20,29.97,13,6,16,0.00
2013-6-14,48.0,46.7,46.0,47.0,45.7,45.0,98,96,95,30.24,30.19,9,4,11,0.00
2013-6-15,49.0,48.2,48.0,48.0,47.2,47.0,96,96,95,30.25,30.25,2,0,6,0.00
2013-6-16,45.0,45.0,45.0,45.0,44.4,44.0,99,98,98,30.21,30.20,0,0,4,0.00
2013-6-17,55.0,53.8,53.0,52.0,50.6,50.0,91,89,87,30.11,30.10,7,4,8,0.00
2013-6-18,68.0,60.8,55.0,55.0,50.3,46.0,87,70,45,29.83,29.74,31,16,39,0.00
2013-6-19,56.0,52.3,49.0,50.0,48.1,47.0,94,86,74,29.85,29.74,18,12,24,0.00
2013-6-20,48.0,47.4,46.0,45.0,43.9,43.0,92,87,84,29.98,29.93,12,9,16,0.00
2013-6-22,46.0,46.0,46.0,44.0,44.0,44.0,94,94,94,29.94,29.94,14,14,18,0.00
2013-6-23,51.0,49.4,47.0,48.0,46.9,45.0,92,91,89,29.59,29.53,11,9,29,0.00
2013-6-24,55.0,50.2,49.0,51.0,48.3,47.0,95,93,86,29.62,29.54,13,9,16,0.00
2013-6-25,49.0,47.2,47.0,47.0,46.1,46.0,97,97,93,29.62,29.60,5,1,9,0.00
2013-6-26,67.0,57.8,52.0,56.0,52.5,50.0,95,84,62,29.70,29.60,13,5,16,0.00
2013-6-27,54.0,52.9,52.0,51.0,50.4,50.0,94,92,91,29.91,29.90,6,3,9,0.00
2013-6-28,52.0,51.2,50.0,51.0,50.2,49.0,98,96,95,30.16,30.11,14,8,19,0.00
2013-6-29,54.0,51.3,49.0,51.0,49.3,48.0,98,94,87,30.13,30.06,17,8,19,0.00
2013-6-30,51.0,50.4,50.0,48.0,47.2,46.0,90,89,87,30.03,30.03,12,8,18,0.00
2013-7-1,52.0,49.1,48.0,50.0,47.5,44.0,99,95,79,29.69,29.49,25,13,33,0.00
2013-7-2,51.0,49.0,45.0,48.0,45.7,43.0,94,88,82,29.84,29.57,13,5,16,0.00
2013-7-3,50.0,48.4,46.0,48.0,47.0,44.0,97,95,91,30.01,29.84,29,14,34,0.00
2013-7-4,49.0,48.7,48.0,48.0,47.7,47.0,97,96,95,30.01,29.96,25,14,31,0.00
2013-7-5,50.0,49.5,49.0,49.0,48.5,48.0,97,96,95,30.03,29.96,15,8,21,0.00
2013-7-6,49.0,48.4,48.0,48.0,47.4,46.0,98,98,97,29.96,29.64,14,5,16,0.00
2013-7-7,50.0,48.4,47.0,48.0,47.0,46.0,99,95,92,29.65,29.57,22,6,26,0.00
2013-7-8,59.0,54.0,48.0,49.0,44.9,-99.9,93,75,60,29.85,29.70,17,6,25,0.00
2013-7-9,56.0,51.8,46.0,50.0,47.4,44.0,96,85,70,30.11,29.84,14,5,21,0.00
2013-7-10,63.0,53.9,47.0,54.0,46.9,-99.9,94,81,63,30.11,29.94,11,4,13,0.00
2013-7-11,55.0,54.2,54.0,52.0,51.5,51.0,92,91,88,29.95,29.94,6,3,7,0.00
2013-7-15,54.0,51.9,50.0,52.0,50.7,49.0,99,96,93,30.32,30.29,18,11,21,0.00
2013-7-16,55.0,54.1,53.0,54.0,53.1,52.0,98,97,97,30.22,30.22,8,2,9,0.00
2013-7-17,65.0,59.4,55.0,59.0,55.9,54.0,97,88,79,30.17,30.13,12,6,18,0.00
2013-7-18,62.0,57.4,55.0,58.0,55.4,54.0,96,92,86,30.18,30.15,20,6,31,0.00
2013-7-19,73.0,69.2,64.0,56.0,53.2,50.0,70,57,45,30.25,30.22,12,6,19,0.00
2013-7-20,68.0,63.5,62.0,55.0,49.8,-99.9,73,64,57,30.20,30.14,19,11,33,0.00
2013-7-21,63.0,58.3,52.0,53.0,50.8,49.0,90,77,65,30.10,30.02,7,3,9,0.00
2013-7-22,71.0,64.5,54.0,52.0,49.4,48.0,83,60,44,30.07,29.97,29,13,35,0.00
2013-7-23,60.0,56.0,51.0,54.0,52.0,48.0,92,87,80,30.11,30.06,13,6,18,0.00
2013-7-24,60.0,57.1,52.0,57.0,54.1,51.0,96,90,86,30.04,29.97,14,8,16,0.00
2013-7-25,58.0,55.2,53.0,57.0,53.8,52.0,98,96,94,29.99,29.97,5,2,6,0.00
2013-7-27,54.0,54.0,54.0,53.0,53.0,53.0,96,96,96,30.29,30.29,7,2,8,0.00
2013-7-28,56.0,54.3,53.0,54.0,52.7,52.0,97,95,93,30.29,30.19,11,5,13,0.00
2013-7-29,57.0,53.8,50.0,55.0,52.3,49.0,99,95,88,30.19,30.17,12,5,20,0.00
2013-7-30,54.0,52.1,50.0,53.0,51.1,49.0,98,97,97,30.24,30.18,12,8,21,0.00
2013-7-31,56.0,54.8,54.0,55.0,53.5,52.0,98,96,94,30.22,30.17,11,8,13,0.00
2013-8-1,56.0,56.0,56.0,54.0,54.0,54.0,93,92,92,30.03,29.99,17,11,29,0.00
2013-8-2,56.0,55.5,55.0,55.0,54.5,54.0,97,97,96,29.87,29.86,11,5,14,0.00
2013-8-3,54.0,54.0,54.0,53.0,52.7,52.0,95,95,94,29.48,29.46,38,34,48,0.00
2013-8-4,53.0,52.2,52.0,53.0,52.2,52.0,99,99,99,29.88,29.87,10,8,12,0.00
2013-8-7,54.0,52.6,51.0,52.0,51.1,50.0,97,94,92,29.64,29.61,24,14,38,0.00
2013-8-8,54.0,52.0,50.0,53.0,50.7,47.0,97,95,90,29.71,29.61,27,19,43,0.00
2013-8-9,52.0,52.0,52.0,52.0,52.0,52.0,99,99,99,29.55,29.54,9,9,13,0.00
2013-8-10,55.0,53.5,52.0,53.0,34.1,-99.9,96,83,91,29.90,29.75,20,9,22,0.00
2013-8-11,52.0,52.0,52.0,51.0,51.0,51.0,97,97,96,29.94,29.93,5,2,6,0.00
2013-8-12,56.0,54.0,53.0,55.0,52.7,52.0,98,95,94,29.95,29.88,10,5,11,0.00
2013-8-13,57.0,54.7,53.0,53.0,52.3,51.0,96,92,87,29.97,29.94,14,8,19,0.00
2013-8-14,55.0,52.1,49.0,54.0,45.2,-99.9,97,95,93,29.98,29.89,9,4,14,0.00
2013-8-15,55.0,43.8,52.0,54.0,18.7,-99.9,97,79,84,29.90,29.73,14,8,21,0.00
2013-8-16,57.0,52.7,50.0,55.0,51.0,48.0,95,94,93,29.68,29.48,8,4,14,0.00
2013-8-17,54.0,52.4,52.0,53.0,51.4,51.0,98,97,96,29.43,29.39,10,5,15,0.00
2013-8-18,56.0,55.7,55.0,55.0,-33.8,-99.9,96,41,96,29.41,29.40,26,22,37,0.00
2013-8-19,52.0,51.7,51.0,51.0,50.7,50.0,98,98,97,29.68,29.66,3,0,4,0.00
2013-8-24,55.0,53.2,52.0,49.0,47.1,46.0,85,79,76,29.59,29.58,7,3,10,0.00
2013-8-25,56.0,55.4,54.0,49.0,48.2,47.0,79,76,74,29.67,29.66,9,5,11,0.00
2013-8-26,57.0,54.2,52.0,53.0,51.3,50.0,96,90,85,29.70,29.66,15,7,19,0.00
2013-8-27,60.0,54.7,51.0,52.0,50.1,48.0,92,85,73,29.77,29.70,17,8,21,0.00
2013-10-1,46.0,41.5,35.0,36.0,34.1,32.0,90,75,64,29.75,29.74,13,7,18,0.00
2013-10-2,47.0,43.5,36.0,43.0,37.7,33.0,93,80,61,29.75,29.49,24,7,38,0.00
2013-10-3,48.0,47.0,45.0,46.0,42.7,40.0,96,85,78,29.49,28.94,47,25,61,0.00
2013-10-4,53.0,48.1,43.0,46.0,44.2,41.0,94,86,70,29.73,29.30,16,7,21,0.00
2013-10-5,41.0,39.8,38.0,40.0,38.8,37.0,97,96,96,29.78,29.77,6,4,8,0.00
2013-10-6,43.0,41.6,39.0,42.0,40.6,38.0,97,96,95,29.76,29.67,5,3,7,0.00
2013-10-7,46.0,45.4,44.0,40.0,39.1,39.0,83,78,76,29.81,29.79,8,5,11,0.00
2013-10-8,49.0,48.5,47.0,48.0,46.0,41.0,98,92,75,29.44,29.19,26,12,34,0.00
2013-10-9,48.0,47.0,46.0,32.0,29.7,29.0,56,51,49,29.65,29.49,26,18,48,0.00
2013-10-10,47.0,46.9,46.0,45.0,44.2,43.0,92,90,86,29.72,29.71,22,19,26,0.00
2013-10-11,47.0,46.9,45.0,46.0,44.9,44.0,95,92,88,29.80,29.69,0,0,12,0.00
2013-10-12,48.0,45.4,47.0,47.0,40.1,-99.9,97,92,94,29.65,29.40,0,0,5,0.00
2013-10-13,47.0,45.8,45.0,45.0,43.2,42.0,92,90,88,29.43,29.39,0,0,0,0.00
2013-10-14,47.0,41.8,37.0,44.0,39.5,36.0,96,92,80,29.99,29.70,8,2,9,0.00
2013-10-15,48.0,47.9,47.0,47.0,46.9,46.0,97,97,96,30.03,29.97,0,0,12,0.00
2013-10-16,50.0,48.0,46.0,47.0,45.0,41.0,94,90,84,30.16,30.04,0,0,6,0.00
2013-10-17,50.0,49.1,49.0,49.0,47.5,47.0,96,94,92,29.90,29.77,0,0,18,0.00
2013-10-18,48.0,47.3,47.0,46.0,43.8,39.0,93,88,73,29.72,29.64,0,0,2,0.00
2013-10-19,48.0,47.2,46.0,45.0,43.1,42.0,91,85,79,29.57,29.37,1,0,19,0.00
2013-10-20,47.0,46.9,46.0,42.0,41.0,40.0,82,79,78,29.75,29.74,0,0,0,0.00
2013-10-21,46.0,42.8,36.0,42.0,38.4,34.0,94,85,79,29.98,29.89,0,0,0,0.00
2013-10-22,41.0,37.2,34.0,37.0,34.5,32.0,94,90,86,30.12,30.10,8,0,10,0.00
2013-10-23,46.0,43.9,40.0,39.0,37.8,35.0,90,79,74,29.83,29.71,15,4,21,0.00
2013-10-24,48.0,47.1,46.0,47.0,44.9,41.0,96,92,84,29.55,29.30,0,0,1,0.00
2013-10-27,49.0,48.5,48.0,47.0,46.4,46.0,94,93,91,29.79,29.67,0,0,0,0.00
2013-10-28,48.0,46.9,46.0,47.0,43.1,40.0,98,87,76,29.46,29.35,0,0,0,0.00
2013-10-29,47.0,44.3,39.0,44.0,41.5,37.0,93,89,88,29.56,29.15,0,0,2,0.00
2013-10-30,47.0,45.9,45.0,44.0,40.7,38.0,92,82,74,28.78,28.67,0,0,1,0.00
2013-10-31,48.0,46.3,45.0,37.0,34.9,33.0,71,65,59,29.47,29.26,0,0,0,0.00
2013-11-1,41.0,39.3,37.0,33.0,32.0,31.0,80,75,72,29.76,29.72,0,0,0,0.00
2013-11-2,46.0,41.9,38.0,45.0,35.8,-99.9,96,86,74,29.96,29.60,26,12,32,0.00
2013-11-3,45.0,44.8,44.0,44.0,43.4,42.0,95,94,93,29.67,29.63,13,10,20,0.00
2013-11-4,46.0,41.8,38.0,39.0,38.4,36.0,95,88,75,29.31,29.20,8,4,9,0.00
2013-11-5,47.0,45.7,45.0,34.0,29.6,26.0,61,53,47,29.76,29.57,22,14,36,0.00
2013-11-6,39.0,38.0,36.0,31.0,29.3,28.0,82,71,65,30.01,29.96,5,2,6,0.00
2013-11-7,44.0,44.0,44.0,39.0,38.8,38.0,83,82,79,29.54,29.54,2,2,5,0.00
2013-11-8,43.0,43.0,43.0,29.0,28.2,28.0,58,56,56,30.05,30.04,12,12,20,0.00
2013-11-10,46.0,44.6,43.0,45.0,39.2,30.0,95,83,59,29.86,29.80,36,24,45,0.00
2013-11-11,39.0,36.1,32.0,28.0,23.4,18.0,71,60,48,29.95,29.91,30,15,43,0.00
2013-11-12,42.0,36.8,33.0,18.0,13.9,10.0,51,39,31,30.02,29.97,21,7,31,0.00
2013-11-13,42.0,38.6,35.0,38.0,34.7,31.0,89,86,82,30.16,30.09,8,4,10,0.00
2013-11-14,58.0,54.9,53.0,48.0,44.4,42.0,70,68,66,30.12,30.00,27,13,39,0.00
2013-11-15,49.0,46.0,42.0,40.0,35.5,30.0,73,66,60,30.04,29.90,10,5,14,0.00
2013-11-16,44.0,37.4,33.0,33.0,19.7,15.0,64,49,40,30.18,29.98,33,21,46,0.00
2013-11-17,30.0,28.1,25.0,15.0,12.5,9.0,59,52,45,30.18,30.12,22,15,26,0.00
2013-11-18,25.0,22.9,21.0,15.0,13.5,12.0,75,67,57,30.13,30.12,8,6,11,0.00
2013-11-19,28.0,23.5,19.0,18.0,15.9,14.0,82,73,62,30.09,30.02,11,7,14,0.00
2013-11-20,30.0,27.5,25.0,29.0,25.3,21.0,95,90,86,29.90,29.64,23,11,27,0.00
2013-11-21,44.0,38.8,34.0,43.0,37.8,33.0,97,96,95,29.51,28.95,36,22,39,0.00
2013-11-22,40.0,33.4,31.0,39.0,22.7,13.0,97,65,46,29.42,29.04,19,9,23,0.00
2013-11-23,41.0,36.3,22.0,38.0,30.8,18.0,92,81,67,29.89,29.58,25,14,30,0.00
2013-11-24,42.0,41.5,40.0,39.0,37.6,36.0,88,86,84,29.88,29.78,22,17,29,0.00
2013-11-25,42.0,40.2,39.0,37.0,36.1,35.0,91,85,80,29.70,29.63,13,7,28,0.00
2013-11-26,40.0,36.8,30.0,34.0,32.1,28.0,94,83,78,29.81,29.76,15,10,19,0.00
2013-11-27,36.0,32.5,30.0,30.0,26.9,25.0,92,80,64,29.85,29.74,8,4,11,0.00
2013-11-28,33.0,27.8,24.0,23.0,9.4,1.0,78,47,30,29.89,29.73,28,10,40,0.00
2013-11-29,25.0,21.6,18.0,12.0,10.4,10.0,75,62,52,30.03,29.97,17,9,21,0.00
2013-11-30,25.0,22.2,20.0,16.0,10.5,-99.9,76,66,59,30.18,30.09,27,11,34,0.00
2013-12-1,36.0,32.7,27.0,15.0,10.0,6.0,55,39,28,30.35,30.23,14,8,21,0.00
2013-12-2,32.0,28.1,24.0,27.0,23.0,18.0,85,81,76,30.62,30.48,6,4,7,0.00
2013-12-3,40.0,39.6,39.0,37.0,33.6,29.0,90,79,66,30.63,30.44,19,15,23,0.00
2013-12-4,42.0,40.5,40.0,41.0,39.5,39.0,97,96,95,30.39,30.32,9,7,14,0.00
2013-12-5,43.0,41.2,40.0,43.0,41.1,39.0,99,99,98,30.32,30.23,6,1,7,0.00
2013-12-6,46.0,43.2,41.0,46.0,43.2,41.0,99,99,99,30.38,30.37,9,4,14,0.00
2013-12-7,42.0,41.2,39.0,38.0,36.0,35.0,91,82,77,30.40,30.37,11,5,14,0.00
2013-12-8,43.0,41.7,40.0,40.0,37.3,35.0,94,85,79,30.43,30.29,13,9,16,0.00
2013-12-9,40.0,38.2,35.0,39.0,37.4,34.0,99,98,97,30.27,30.13,11,3,12,0.00
2013-12-10,43.0,41.7,40.0,39.0,38.4,38.0,93,88,81,30.01,29.56,24,18,33,0.00
2013-12-11,41.0,38.9,36.0,38.0,33.5,26.0,90,81,65,29.44,29.42,30,20,40,0.00
2013-12-12,30.0,25.9,22.0,24.0,16.1,6.0,84,67,50,29.40,29.34,14,8,14,0.00
2013-12-13,30.0,28.9,27.0,22.0,21.4,20.0,77,73,71,29.04,28.98,33,20,43,0.00
2013-12-14,23.0,20.1,18.0,13.0,8.8,5.0,66,61,57,29.05,28.96,27,14,38,0.00
2013-12-15,22.0,21.0,19.0,9.0,8.4,6.0,63,57,51,29.83,29.65,14,10,29,0.00
2013-12-16,15.0,13.1,12.0,7.0,6.4,6.0,76,74,69,29.96,29.94,5,4,7,0.00
2013-12-22,36.0,33.3,32.0,25.0,22.0,19.0,67,63,57,29.62,29.51,24,14,28,0.00
2013-12-23,27.0,25.1,24.0,20.0,18.3,17.0,80,75,66,30.02,29.98,8,5,9,0.00
2013-12-24,36.0,35.3,35.0,34.0,32.6,32.0,92,90,89,29.58,29.49,33,26,58,0.00
2013-12-26,34.0,32.2,31.0,32.0,30.4,29.0,95,93,91,29.66,29.65,5,3,7,0.00
2013-12-27,41.0,38.5,36.0,40.0,37.5,35.0,98,98,98,29.67,29.65,8,4,18,0.00
2013-12-28,36.0,34.2,31.0,35.0,33.0,30.0,97,95,94,29.82,29.80,6,2,8,0.00
2013-12-29,39.0,38.6,38.0,38.0,37.0,36.0,95,93,89,29.66,29.44,15,11,19,0.00
2013-12-30,38.0,38.0,38.0,37.0,37.0,37.0,95,95,95,29.34,29.34,4,2,4,0.00
2013-12-31,43.0,40.6,38.0,42.0,38.9,35.0,96,93,86,29.22,28.95,31,18,59,0.00
2014-1-1,41.0,39.7,39.0,38.0,34.9,32.0,91,83,76,29.39,28.82,38,17,49,0.00
2014-1-2,43.0,39.5,37.0,32.0,28.6,26.0,75,65,53,29.98,29.64,17,5,27,0.00